CWA330 CYYC-CYQR

Flight info

Callsign CWA330
Flight time 1h 21m
Altitude 27000
Route VETBI Q991 LIBOS DCT ODGOV ODGOV6
Aircraft B350/L-SBGRW/S

Departure

Time 2026-04-16 22:58
Airport Calgary International Airport (CYYC)

Arrival

Time 2026-04-17 00:19
Airport Regina International Airport (CYQR)
Time Latitude Longitude Altitude Speed Heading
2026-04-16 22:45 51.12177 -113.99444 3570 ft 34 kts 182°
2026-04-16 22:46 51.11903 -113.99443 3562 ft 42 kts 179°
2026-04-16 22:46 51.11611 -113.99443 3556 ft 36 kts 178°
2026-04-16 22:46 51.11444 -113.99448 3554 ft 35 kts 179°
2026-04-16 22:46 51.11236 -113.99446 3552 ft 33 kts 179°
2026-04-16 22:47 51.11060 -113.99432 3553 ft 13 kts 152°
2026-04-16 22:47 51.11035 -113.99293 3554 ft 14 kts 88°
2026-04-16 22:47 51.11035 -113.99213 3554 ft 0 kts 89°
2026-04-16 22:56 51.11035 -113.99209 3554 ft 1 kts 87°
2026-04-16 22:56 51.11041 -113.99085 3555 ft 17 kts 72°
2026-04-16 22:56 51.11112 -113.99041 3556 ft 4 kts 358°
2026-04-16 22:56 51.11115 -113.99042 3556 ft 0 kts 357°
2026-04-16 22:57 51.11117 -113.99042 3556 ft 3 kts 356°
2026-04-16 22:58 51.11123 -113.99043 3556 ft 0 kts 356°
2026-04-16 22:58 51.11545 -113.99031 3557 ft 102 kts
2026-04-16 22:58 51.12122 -113.99061 3678 ft 129 kts 354°
2026-04-16 22:58 51.12989 -113.99212 4478 ft 127 kts 358°
2026-04-16 22:59 51.13868 -113.99096 5189 ft 131 kts 13°
2026-04-16 22:59 51.14732 -113.98782 5964 ft 130 kts 11°
2026-04-16 22:59 51.15649 -113.98386 6481 ft 146 kts 13°
2026-04-16 22:59 51.16652 -113.97935 7033 ft 157 kts 13°
2026-04-16 23:00 51.17712 -113.97450 7680 ft 161 kts 13°
2026-04-16 23:00 51.18422 -113.97120 8143 ft 162 kts 13°
2026-04-16 23:00 51.19830 -113.96448 9075 ft 159 kts 13°
2026-04-16 23:00 51.20875 -113.95947 9732 ft 157 kts 13°
2026-04-16 23:01 51.21750 -113.94888 10310 ft 171 kts 51°
2026-04-16 23:01 51.22027 -113.92986 10857 ft 188 kts 81°
2026-04-16 23:01 51.21926 -113.90892 11413 ft 193 kts 88°
2026-04-16 23:01 51.21758 -113.88765 11966 ft 193 kts 87°
2026-04-16 23:02 51.21628 -113.86675 12503 ft 192 kts 85°
2026-04-16 23:02 51.21528 -113.84567 13025 ft 192 kts 84°
2026-04-16 23:02 51.21445 -113.82462 13543 ft 191 kts 83°
2026-04-16 23:02 51.21372 -113.80341 14030 ft 192 kts 83°
2026-04-16 23:03 51.21304 -113.78226 14487 ft 193 kts 83°
2026-04-16 23:03 51.21238 -113.76078 14960 ft 192 kts 83°
2026-04-16 23:03 51.21175 -113.73986 15425 ft 192 kts 83°
2026-04-16 23:03 51.21112 -113.71857 15903 ft 191 kts 81°
2026-04-16 23:04 51.21052 -113.69787 16359 ft 190 kts 82°
2026-04-16 23:04 51.20991 -113.67682 16769 ft 190 kts 82°
2026-04-16 23:04 51.20931 -113.65591 17184 ft 190 kts 83°
2026-04-16 23:04 51.20868 -113.63492 17603 ft 189 kts 83°
2026-04-16 23:05 51.20828 -113.62118 17858 ft 189 kts 82°
2026-04-16 23:05 51.20745 -113.59304 18372 ft 189 kts 82°
2026-04-16 23:05 51.20684 -113.57241 18718 ft 190 kts 83°
2026-04-16 23:05 51.20623 -113.55210 19080 ft 189 kts 82°
2026-04-16 23:06 51.20558 -113.53074 19458 ft 189 kts 84°
2026-04-16 23:06 51.20515 -113.51657 19695 ft 188 kts 83°
2026-04-16 23:06 51.20431 -113.48903 20152 ft 188 kts 83°
2026-04-16 23:06 51.20367 -113.46815 20469 ft 188 kts 83°
2026-04-16 23:07 51.20304 -113.44743 20773 ft 189 kts 84°
2026-04-16 23:07 51.20239 -113.42653 21084 ft 189 kts 83°
2026-04-16 23:07 51.20149 -113.40555 21402 ft 190 kts 86°
2026-04-16 23:07 51.20001 -113.38493 21712 ft 191 kts 88°
2026-04-16 23:08 51.19837 -113.36368 22075 ft 193 kts 88°
2026-04-16 23:08 51.19732 -113.34946 22367 ft 194 kts 89°
2026-04-16 23:08 51.19526 -113.32140 22978 ft 192 kts 88°
2026-04-16 23:08 51.19375 -113.30045 23427 ft 191 kts 88°
2026-04-16 23:09 51.19224 -113.27933 23852 ft 190 kts 88°
2026-04-16 23:09 51.19077 -113.25857 24245 ft 190 kts 88°
2026-04-16 23:09 51.18930 -113.23785 24625 ft 190 kts 89°
2026-04-16 23:09 51.18782 -113.21693 24987 ft 190 kts 89°
2026-04-16 23:10 51.18638 -113.19621 25321 ft 191 kts 89°
2026-04-16 23:10 51.18493 -113.17516 25649 ft 191 kts 89°
2026-04-16 23:10 51.18347 -113.15418 25960 ft 192 kts 89°
2026-04-16 23:10 51.18200 -113.13314 26265 ft 192 kts 89°
2026-04-16 23:11 51.18052 -113.11210 26555 ft 193 kts 89°
2026-04-16 23:11 51.17903 -113.09094 26843 ft 193 kts 89°
2026-04-16 23:11 51.17753 -113.06951 26991 ft 202 kts 89°
2026-04-16 23:11 51.17594 -113.04647 27017 ft 216 kts 89°
2026-04-16 23:12 51.17422 -113.02213 27023 ft 230 kts 90°
2026-04-16 23:12 51.17236 -112.99589 27022 ft 244 kts 90°
2026-04-16 23:12 51.17038 -112.96840 27024 ft 257 kts 91°
2026-04-16 23:12 51.16832 -112.93990 27014 ft 269 kts 91°
2026-04-16 23:13 51.16610 -112.90948 27012 ft 279 kts 91°
2026-04-16 23:13 51.16462 -112.88908 27010 ft 286 kts 91°
2026-04-16 23:13 51.16148 -112.84620 27005 ft 298 kts 91°
2026-04-16 23:13 51.15989 -112.82452 27001 ft 303 kts 91°
2026-04-16 23:14 51.15746 -112.79157 27007 ft 309 kts 92°
2026-04-16 23:14 51.15490 -112.75714 26998 ft 313 kts 92°
2026-04-16 23:14 51.15231 -112.72239 27000 ft 315 kts 92°
2026-04-16 23:14 51.14975 -112.68809 26987 ft 316 kts 92°
2026-04-16 23:15 51.14455 -112.61880 27010 ft 317 kts 92°
2026-04-16 23:15 51.14194 -112.58418 26979 ft 318 kts 92°
2026-04-16 23:15 51.13930 -112.54922 26980 ft 318 kts 92°
2026-04-16 23:16 51.13663 -112.51398 26990 ft 319 kts 92°
2026-04-16 23:16 51.13309 -112.46741 26994 ft 319 kts 92°
2026-04-16 23:16 51.13129 -112.44392 26996 ft 319 kts 92°
2026-04-16 23:16 51.12862 -112.40902 26987 ft 319 kts 92°
2026-04-16 23:17 51.12595 -112.37440 26995 ft 319 kts 92°
2026-04-16 23:17 51.12324 -112.33933 27002 ft 318 kts 92°
2026-04-16 23:17 51.11962 -112.29264 27004 ft 318 kts 92°
2026-04-16 23:17 51.11783 -112.26976 27007 ft 318 kts 93°
2026-04-16 23:18 51.11510 -112.23482 27010 ft 318 kts 93°
2026-04-16 23:18 51.11236 -112.19989 27010 ft 318 kts 92°
2026-04-16 23:18 51.10870 -112.15348 27021 ft 318 kts 93°
2026-04-16 23:18 51.10685 -112.13004 27013 ft 318 kts 93°
2026-04-16 23:19 51.10408 -112.09519 27007 ft 318 kts 93°
2026-04-16 23:19 51.10135 -112.06095 27012 ft 317 kts 93°
2026-04-16 23:19 51.09856 -112.02600 27016 ft 317 kts 93°
2026-04-16 23:19 51.09578 -111.99143 27012 ft 318 kts 93°
2026-04-16 23:20 51.09300 -111.95686 27015 ft 317 kts 93°
2026-04-16 23:20 51.09019 -111.92215 27019 ft 317 kts 93°
2026-04-16 23:20 51.08736 -111.88761 27011 ft 317 kts 93°
2026-04-16 23:20 51.08448 -111.85272 27025 ft 317 kts 93°
2026-04-16 23:21 51.08163 -111.81844 27032 ft 316 kts 93°
2026-04-16 23:21 51.07780 -111.77238 27030 ft 316 kts 93°
2026-04-16 23:21 51.07493 -111.73792 27038 ft 315 kts 93°
2026-04-16 23:21 51.07202 -111.70323 27036 ft 315 kts 93°
2026-04-16 23:22 51.06913 -111.66884 27039 ft 315 kts 94°
2026-04-16 23:22 51.06718 -111.64578 27039 ft 315 kts 94°
2026-04-16 23:22 51.06428 -111.61142 27030 ft 315 kts 94°
2026-04-16 23:22 51.06140 -111.57748 27018 ft 314 kts 93°
2026-04-16 23:23 51.05848 -111.54325 27033 ft 314 kts 93°
2026-04-16 23:23 51.05456 -111.49747 27036 ft 314 kts 94°
2026-04-16 23:23 51.05164 -111.46337 27021 ft 313 kts 93°
2026-04-16 23:23 51.04868 -111.42905 27028 ft 313 kts 94°
2026-04-16 23:24 51.04573 -111.39503 27030 ft 312 kts 94°
2026-04-16 23:24 51.04281 -111.36127 27023 ft 312 kts 94°
2026-04-16 23:24 51.04080 -111.33824 27033 ft 312 kts 94°
2026-04-16 23:24 51.03684 -111.29292 27037 ft 312 kts 95°
2026-04-16 23:25 51.03489 -111.27061 27043 ft 312 kts 95°
2026-04-16 23:25 51.03088 -111.22506 27022 ft 312 kts 95°
2026-04-16 23:25 51.02786 -111.19086 27022 ft 312 kts 95°
2026-04-16 23:25 51.02486 -111.15708 27036 ft 312 kts 95°
2026-04-16 23:26 51.02290 -111.13500 27029 ft 312 kts 95°
2026-04-16 23:26 51.01882 -111.08919 27032 ft 312 kts 94°
2026-04-16 23:26 51.01578 -111.05520 27029 ft 312 kts 95°
2026-04-16 23:26 51.01272 -111.02117 27038 ft 311 kts 95°
2026-04-16 23:27 51.00967 -110.98734 27023 ft 312 kts 95°
2026-04-16 23:27 51.00661 -110.95352 27015 ft 311 kts 95°
2026-04-16 23:27 51.00353 -110.91961 27022 ft 311 kts 95°
2026-04-16 23:27 51.00047 -110.88598 27022 ft 311 kts 95°
2026-04-16 23:28 50.99737 -110.85197 27004 ft 311 kts 95°
2026-04-16 23:28 50.99425 -110.81798 27002 ft 310 kts 95°
2026-04-16 23:28 50.99115 -110.78424 27011 ft 310 kts 95°
2026-04-16 23:28 50.98804 -110.75057 26992 ft 310 kts 95°
2026-04-16 23:29 50.98495 -110.71717 26995 ft 309 kts 95°
2026-04-16 23:29 50.98181 -110.68331 26998 ft 309 kts 95°
2026-04-16 23:29 50.97871 -110.64999 26992 ft 309 kts 95°
2026-04-16 23:29 50.97553 -110.61599 26985 ft 309 kts 96°
2026-04-16 23:30 50.97241 -110.58271 27006 ft 308 kts 96°
2026-04-16 23:30 50.96926 -110.54923 26982 ft 308 kts 96°
2026-04-16 23:30 50.96611 -110.51590 26993 ft 307 kts 96°
2026-04-16 23:30 50.96397 -110.49317 26993 ft 307 kts 96°
2026-04-16 23:31 50.95974 -110.44860 26996 ft 307 kts 96°
2026-04-16 23:31 50.95657 -110.41528 27012 ft 307 kts 96°
2026-04-16 23:31 50.95448 -110.39338 26996 ft 307 kts 96°
2026-04-16 23:31 50.95127 -110.35986 26993 ft 307 kts 96°
2026-04-16 23:32 50.94808 -110.32671 27002 ft 307 kts 97°
2026-04-16 23:32 50.94487 -110.29337 27002 ft 307 kts 97°
2026-04-16 23:32 50.94165 -110.26009 26992 ft 307 kts 97°
2026-04-16 23:32 50.93841 -110.22661 27001 ft 307 kts 97°
2026-04-16 23:33 50.93518 -110.19343 27006 ft 307 kts 97°
2026-04-16 23:33 50.93086 -110.14906 26987 ft 307 kts 98°
2026-04-16 23:33 50.92867 -110.12675 27004 ft 307 kts 98°
2026-04-16 23:33 50.92539 -110.09333 26999 ft 307 kts 98°
2026-04-16 23:34 50.92211 -110.05999 26974 ft 307 kts 98°
2026-04-16 23:34 50.91773 -110.01569 26986 ft 307 kts 98°
2026-04-16 23:34 50.91553 -109.99344 26981 ft 307 kts 98°
2026-04-16 23:34 50.91222 -109.96014 26977 ft 307 kts 98°
2026-04-16 23:35 50.90892 -109.92696 26984 ft 307 kts 98°
2026-04-16 23:35 50.90447 -109.88246 26980 ft 307 kts 98°
2026-04-16 23:35 50.90112 -109.84911 26976 ft 308 kts 98°
2026-04-16 23:35 50.89776 -109.81568 26981 ft 308 kts 98°
2026-04-16 23:36 50.89635 -109.80170 26976 ft 308 kts 98°
2026-04-16 23:36 50.89402 -109.77868 26974 ft 308 kts 98°
2026-04-16 23:36 50.88953 -109.73436 26993 ft 308 kts 98°
2026-04-16 23:36 50.88728 -109.71218 26978 ft 308 kts 98°
2026-04-16 23:37 50.88279 -109.66805 26970 ft 308 kts 99°
2026-04-16 23:37 50.88057 -109.64642 26981 ft 308 kts 98°
2026-04-16 23:37 50.87602 -109.60194 26988 ft 308 kts 99°
2026-04-16 23:37 50.87262 -109.56895 26973 ft 308 kts 99°
2026-04-16 23:38 50.87035 -109.54688 26961 ft 308 kts 99°
2026-04-16 23:38 50.86695 -109.51400 26980 ft 308 kts 99°
2026-04-16 23:38 50.86350 -109.48074 26975 ft 308 kts 99°
2026-04-16 23:38 50.85892 -109.43669 26971 ft 308 kts 99°
2026-04-16 23:39 50.85543 -109.40322 26975 ft 308 kts 99°
2026-04-16 23:39 50.85198 -109.37023 26961 ft 308 kts 100°
2026-04-16 23:39 50.84851 -109.33723 26968 ft 308 kts 101°
2026-04-16 23:39 50.84499 -109.30376 26981 ft 308 kts 101°
2026-04-16 23:40 50.84268 -109.28187 26991 ft 308 kts 101°
2026-04-16 23:40 50.83801 -109.23771 26977 ft 309 kts 101°
2026-04-16 23:40 50.83564 -109.21533 26977 ft 309 kts 101°
2026-04-16 23:40 50.83092 -109.17097 26979 ft 309 kts 101°
2026-04-16 23:41 50.82853 -109.14864 26972 ft 309 kts 101°
2026-04-16 23:41 50.82380 -109.10442 26977 ft 309 kts 101°
2026-04-16 23:41 50.82024 -109.07124 26982 ft 309 kts 101°
2026-04-16 23:41 50.81666 -109.03795 26973 ft 309 kts 101°
2026-04-16 23:42 50.81352 -109.00452 26960 ft 310 kts 99°
2026-04-16 23:42 50.81129 -108.97081 26991 ft 311 kts 97°
2026-04-16 23:42 50.80977 -108.93739 26969 ft 312 kts 96°
2026-04-16 23:42 50.80825 -108.90352 26981 ft 311 kts 96°
2026-04-16 23:43 50.80690 -108.87370 26971 ft 311 kts 97°
2026-04-16 23:43 50.80541 -108.84100 26991 ft 312 kts 97°
2026-04-16 23:43 50.80322 -108.79318 26986 ft 312 kts 97°
2026-04-16 23:44 50.80221 -108.77141 26984 ft 313 kts 97°
2026-04-16 23:44 50.80039 -108.73225 26999 ft 313 kts 97°
2026-04-16 23:44 50.79907 -108.70397 26970 ft 314 kts 97°
2026-04-16 23:44 50.79746 -108.66966 26986 ft 315 kts 98°
2026-04-16 23:45 50.79584 -108.63538 26990 ft 315 kts 98°
2026-04-16 23:45 50.79419 -108.60075 26972 ft 316 kts 98°
2026-04-16 23:45 50.79253 -108.56605 26982 ft 316 kts 98°
2026-04-16 23:45 50.79088 -108.53182 26985 ft 316 kts 98°
2026-04-16 23:46 50.78919 -108.49702 26983 ft 316 kts 98°
2026-04-16 23:46 50.78751 -108.46254 26974 ft 316 kts 98°
2026-04-16 23:46 50.78583 -108.42836 26978 ft 317 kts 98°
2026-04-16 23:46 50.78411 -108.39342 26972 ft 317 kts 98°
2026-04-16 23:47 50.78240 -108.35908 26975 ft 317 kts 98°
2026-04-16 23:47 50.78066 -108.32419 26973 ft 318 kts 99°
2026-04-16 23:47 50.77891 -108.28954 26969 ft 318 kts 99°
2026-04-16 23:47 50.77714 -108.25454 26970 ft 318 kts 99°
2026-04-16 23:48 50.77538 -108.21993 26972 ft 319 kts 100°
2026-04-16 23:48 50.77359 -108.18491 26957 ft 319 kts 100°
2026-04-16 23:48 50.77182 -108.15048 26956 ft 319 kts 100°
2026-04-16 23:48 50.77000 -108.11533 26979 ft 320 kts 100°
2026-04-16 23:49 50.76820 -108.08079 26986 ft 320 kts 100°
2026-04-16 23:49 50.76637 -108.04587 26985 ft 321 kts 100°
2026-04-16 23:49 50.76452 -108.01085 26949 ft 321 kts 100°
2026-04-16 23:49 50.76268 -107.97607 26966 ft 320 kts 100°
2026-04-16 23:50 50.76080 -107.94073 26968 ft 321 kts 101°
2026-04-16 23:50 50.75893 -107.90586 26980 ft 321 kts 101°
2026-04-16 23:50 50.75705 -107.87096 26969 ft 322 kts 101°
2026-04-16 23:50 50.75514 -107.83588 26954 ft 322 kts 101°
2026-04-16 23:51 50.75323 -107.80090 26960 ft 322 kts 101°
2026-04-16 23:51 50.75130 -107.76564 26953 ft 322 kts 102°
2026-04-16 23:51 50.74938 -107.73087 26983 ft 323 kts 101°
2026-04-16 23:51 50.74807 -107.70716 26953 ft 323 kts 102°
2026-04-16 23:52 50.74547 -107.66039 26959 ft 323 kts 102°
2026-04-16 23:52 50.74348 -107.62503 26962 ft 323 kts 102°
2026-04-16 23:52 50.74150 -107.58977 26956 ft 324 kts 103°
2026-04-16 23:52 50.73951 -107.55467 26955 ft 324 kts 103°
2026-04-16 23:53 50.73748 -107.51909 26950 ft 325 kts 102°
2026-04-16 23:53 50.73546 -107.48373 26947 ft 325 kts 103°
2026-04-16 23:53 50.73342 -107.44851 26953 ft 325 kts 103°
2026-04-16 23:53 50.73136 -107.41281 26985 ft 325 kts 103°
2026-04-16 23:54 50.72932 -107.37783 26976 ft 326 kts 103°
2026-04-16 23:54 50.72721 -107.34179 26981 ft 326 kts 104°
2026-04-16 23:54 50.72512 -107.30627 26999 ft 326 kts 104°
2026-04-16 23:54 50.72301 -107.27060 26978 ft 326 kts 105°
2026-04-16 23:55 50.72091 -107.23527 26986 ft 326 kts 105°
2026-04-16 23:55 50.71880 -107.19997 26996 ft 327 kts 104°
2026-04-16 23:55 50.71664 -107.16406 26989 ft 328 kts 105°
2026-04-16 23:55 50.71449 -107.12846 26980 ft 328 kts 105°
2026-04-16 23:56 50.71232 -107.09264 26984 ft 328 kts 105°
2026-04-16 23:56 50.71021 -107.05808 26964 ft 329 kts 105°
2026-04-16 23:56 50.70790 -107.02084 26729 ft 336 kts 106°
2026-04-16 23:56 50.70565 -106.98452 26380 ft 331 kts 106°
2026-04-16 23:57 50.70348 -106.94905 25997 ft 327 kts 107°
2026-04-16 23:57 50.70236 -106.93094 25807 ft 324 kts 107°
2026-04-16 23:57 50.70039 -106.89914 25497 ft 320 kts 107°
2026-04-16 23:57 50.69823 -106.86465 25137 ft 316 kts 108°
2026-04-16 23:58 50.69608 -106.83049 24779 ft 312 kts 108°
2026-04-16 23:58 50.69395 -106.79684 24413 ft 309 kts 108°
2026-04-16 23:58 50.69181 -106.76340 24028 ft 305 kts 108°
2026-04-16 23:58 50.68969 -106.73029 23651 ft 304 kts 108°
2026-04-16 23:59 50.68755 -106.69728 23284 ft 303 kts 108°
2026-04-16 23:59 50.68543 -106.66436 22914 ft 302 kts 108°
2026-04-16 23:59 50.68328 -106.63148 22539 ft 303 kts 107°
2026-04-16 23:59 50.68113 -106.59844 22156 ft 304 kts 108°
2026-04-17 00:00 50.67896 -106.56542 21783 ft 305 kts 107°
2026-04-17 00:00 50.67681 -106.53260 21438 ft 305 kts 107°
2026-04-17 00:00 50.67459 -106.49896 21087 ft 305 kts 106°
2026-04-17 00:00 50.67242 -106.46609 20734 ft 305 kts 106°
2026-04-17 00:01 50.67021 -106.43288 20380 ft 305 kts 106°
2026-04-17 00:01 50.66799 -106.39962 20027 ft 305 kts 105°
2026-04-17 00:01 50.66575 -106.36623 19673 ft 304 kts 104°
2026-04-17 00:01 50.66355 -106.33343 19317 ft 303 kts 105°
2026-04-17 00:02 50.66133 -106.30060 18957 ft 302 kts 105°
2026-04-17 00:02 50.65915 -106.26852 18599 ft 301 kts 104°
2026-04-17 00:02 50.65686 -106.23498 18214 ft 301 kts 104°
2026-04-17 00:02 50.65465 -106.20263 17861 ft 300 kts 104°
2026-04-17 00:03 50.65239 -106.16993 17496 ft 300 kts 103°
2026-04-17 00:03 50.65014 -106.13731 17141 ft 299 kts 103°
2026-04-17 00:03 50.64793 -106.10531 16777 ft 298 kts 103°
2026-04-17 00:03 50.64564 -106.07270 16410 ft 297 kts 103°
2026-04-17 00:04 50.64340 -106.04059 16035 ft 295 kts 103°
2026-04-17 00:04 50.64119 -106.00898 15688 ft 294 kts 102°
2026-04-17 00:04 50.63891 -105.97671 15317 ft 293 kts 101°
2026-04-17 00:04 50.63667 -105.94504 14945 ft 293 kts 102°
2026-04-17 00:05 50.63443 -105.91354 14611 ft 291 kts 102°
2026-04-17 00:05 50.63216 -105.88159 14230 ft 289 kts 101°
2026-04-17 00:05 50.62993 -105.85043 13874 ft 288 kts 101°
2026-04-17 00:05 50.62767 -105.81911 13521 ft 287 kts 101°
2026-04-17 00:06 50.62544 -105.78804 13166 ft 286 kts 101°
2026-04-17 00:06 50.62319 -105.75708 12812 ft 285 kts 100°
2026-04-17 00:06 50.62095 -105.72632 12454 ft 284 kts 100°
2026-04-17 00:06 50.61872 -105.69576 12096 ft 283 kts 99°
2026-04-17 00:07 50.61646 -105.66491 11733 ft 282 kts 99°
2026-04-17 00:07 50.61423 -105.63460 11382 ft 281 kts 99°
2026-04-17 00:07 50.61199 -105.60426 11027 ft 280 kts 98°
2026-04-17 00:07 50.60974 -105.57386 10665 ft 278 kts 98°
2026-04-17 00:08 50.60752 -105.54402 10350 ft 276 kts 98°
2026-04-17 00:08 50.60530 -105.51426 10026 ft 270 kts 98°
2026-04-17 00:08 50.60313 -105.48511 9708 ft 265 kts 98°
2026-04-17 00:08 50.60101 -105.45683 9415 ft 260 kts 98°
2026-04-17 00:09 50.59775 -105.42912 9113 ft 254 kts 109°
2026-04-17 00:09 50.59067 -105.40441 8844 ft 249 kts 118°
2026-04-17 00:09 50.58249 -105.38047 8548 ft 247 kts 119°
2026-04-17 00:09 50.57417 -105.35703 8265 ft 244 kts 119°
2026-04-17 00:10 50.56606 -105.33401 7972 ft 239 kts 119°
2026-04-17 00:10 50.55815 -105.31152 7655 ft 233 kts 118°
2026-04-17 00:10 50.55038 -105.28934 7354 ft 230 kts 118°
2026-04-17 00:10 50.54297 -105.26814 7063 ft 228 kts 118°
2026-04-17 00:11 50.53769 -105.25304 6859 ft 227 kts 117°
2026-04-17 00:11 50.53014 -105.23148 6573 ft 224 kts 117°
2026-04-17 00:11 50.52278 -105.21046 6292 ft 221 kts 118°
2026-04-17 00:11 50.51552 -105.18970 6004 ft 219 kts 118°
2026-04-17 00:12 50.50823 -105.16888 5710 ft 217 kts 118°
2026-04-17 00:12 50.50101 -105.14830 5412 ft 217 kts 118°
2026-04-17 00:12 50.49376 -105.12763 5119 ft 216 kts 118°
2026-04-17 00:12 50.48659 -105.10722 4837 ft 213 kts 117°
2026-04-17 00:13 50.47946 -105.08695 4544 ft 211 kts 117°
2026-04-17 00:13 50.47239 -105.06683 4242 ft 209 kts 116°
2026-04-17 00:13 50.46537 -105.04690 4004 ft 203 kts 116°
2026-04-17 00:13 50.45879 -105.02826 3964 ft 191 kts 116°
2026-04-17 00:14 50.45242 -105.01015 3960 ft 189 kts 115°
2026-04-17 00:14 50.44605 -104.99206 3965 ft 189 kts 115°
2026-04-17 00:14 50.43973 -104.97410 3962 ft 191 kts 115°
2026-04-17 00:14 50.43329 -104.95586 3970 ft 190 kts 115°
2026-04-17 00:15 50.42906 -104.93683 3956 ft 180 kts 93°
2026-04-17 00:15 50.42868 -104.91756 3960 ft 175 kts 86°
2026-04-17 00:15 50.42896 -104.89872 3968 ft 172 kts 86°
2026-04-17 00:15 50.42904 -104.88009 3982 ft 173 kts 87°
2026-04-17 00:16 50.42903 -104.86116 3979 ft 175 kts 87°
2026-04-17 00:16 50.42900 -104.84257 3963 ft 164 kts 87°
2026-04-17 00:16 50.42900 -104.82552 3908 ft 153 kts 86°
2026-04-17 00:16 50.42903 -104.80898 3675 ft 147 kts 86°
2026-04-17 00:17 50.42904 -104.79349 3460 ft 137 kts 85°
2026-04-17 00:17 50.42905 -104.77928 3264 ft 125 kts 85°
2026-04-17 00:17 50.42907 -104.76628 3084 ft 116 kts 85°
2026-04-17 00:17 50.42910 -104.75375 2914 ft 114 kts 85°
2026-04-17 00:18 50.42911 -104.74159 2747 ft 113 kts 85°
2026-04-17 00:18 50.42912 -104.72899 2575 ft 116 kts 86°
2026-04-17 00:18 50.42912 -104.71617 2400 ft 119 kts 86°
2026-04-17 00:18 50.42916 -104.70324 2226 ft 121 kts 86°
2026-04-17 00:19 50.42922 -104.69003 2040 ft 120 kts 88°
2026-04-17 00:19 50.42914 -104.67745 1896 ft 110 kts 88°
2026-04-17 00:19 50.42914 -104.67113 1891 ft 77 kts 88°
2026-04-17 00:19 50.42919 -104.66524 1888 ft 41 kts 91°
2026-04-17 00:20 50.42920 -104.66176 1889 ft 24 kts 88°
2026-04-17 00:20 50.42918 -104.65904 1889 ft 25 kts 90°
2026-04-17 00:20 50.42936 -104.65718 1889 ft 12 kts 33°
2026-04-17 00:20 50.43031 -104.65636 1887 ft 16 kts 25°
2026-04-17 00:21 50.43092 -104.65590 1887 ft 3 kts 21°
2026-04-17 00:21 50.43097 -104.65588 1888 ft 0 kts 18°
2026-04-17 00:21 50.43158 -104.65653 1887 ft 21 kts 321°
2026-04-17 00:21 50.43248 -104.65783 1887 ft 23 kts 317°
2026-04-17 00:22 50.43395 -104.65985 1888 ft 21 kts 325°
2026-04-17 00:22 50.43446 -104.66075 1888 ft 14 kts 329°
2026-04-17 00:22 50.43543 -104.66195 1887 ft 13 kts 312°
2026-04-17 00:23 50.43597 -104.66251 1887 ft 8 kts
2026-04-17 00:23 50.43664 -104.66165 1884 ft 16 kts 47°
2026-04-17 00:23 50.43718 -104.66073 1884 ft 3 kts 47°
2026-04-17 00:23 50.43739 -104.66035 1884 ft 8 kts 48°
2026-04-17 00:24 50.43758 -104.66010 1884 ft 5 kts
2026-04-17 00:24 50.43804 -104.66043 1884 ft 10 kts 333°
2026-04-17 00:24 50.43821 -104.66079 1884 ft 2 kts 224°
2026-04-17 00:24 50.43813 -104.66064 1884 ft 2 kts 79°
2026-04-17 00:25 50.43816 -104.66036 1884 ft 1 kts 117°
2026-04-17 00:25 50.43792 -104.66034 1884 ft 5 kts 274°
2026-04-17 00:25 50.43816 -104.66056 1884 ft 2 kts 28°
2026-04-17 00:25 50.43823 -104.66037 1884 ft 0 kts 112°
2026-04-17 00:26 50.43816 -104.66029 1884 ft 0 kts 174°
2026-04-17 00:26 50.43815 -104.66029 1884 ft 0 kts 174°